International Skating Union - Official Site

ISU World Cup Heerenveen
December 9-11, 2016

Draw | Lap Times | Index | World Cup

Referee: Karl  SKOOG  (SWE)
Starter: Brad  BATES  (CAN)
StartTime: EndTime: Air Temp: Ice Temp: Humidity:
18:23 20:14 15.4℃ -7.8℃ 31%
Result 10000m Men Division B
Rankings as of Dec 11 2016 8:18PM
Rank: No.: Name: Nation: Time: Behind: Points:
1 87 Bob  de Vries NED NED 12:47.53400m - 35.61 - (35.6)
800m - 1:06.20 - (30.5)
1200m - 1:37.14 - (30.9)
1600m - 2:07.93 - (30.7)
2000m - 2:38.73 - (30.7)
2400m - 3:09.62 - (30.8)
2800m - 3:40.69 - (31.0)
3200m - 4:11.73 - (31.0)
3600m - 4:42.67 - (30.9)
4000m - 5:13.56 - (30.8)
4400m - 5:44.28 - (30.7)
4800m - 6:14.83 - (30.5)
5200m - 6:45.35 - (30.5)
5600m - 7:15.74 - (30.3)
6000m - 7:46.15 - (30.4)
6400m - 8:16.44 - (30.2)
6800m - 8:46.86 - (30.4)
7200m - 9:17.31 - (30.4)
7600m - 9:47.70 - (30.3)
8000m - 10:18.03 - (30.3)
8400m - 10:48.12 - (30.0)
8800m - 11:18.17 - (30.0)
9200m - 11:48.14 - (29.9)
9600m - 12:17.69 - (29.5)
10000m - 12:47.53 - (29.8)
32
2 89 Jouke  Hoogeveen NED NED 12:58.21400m - 36.45 - (36.4)
800m - 1:07.40 - (30.9)
1200m - 1:38.45 - (31.0)
1600m - 2:09.50 - (31.0)
2000m - 2:40.88 - (31.3)
2400m - 3:12.19 - (31.3)
2800m - 3:43.23 - (31.0)
3200m - 4:14.24 - (31.0)
3600m - 4:45.01 - (30.7)
4000m - 5:15.93 - (30.9)
4400m - 5:46.51 - (30.5)
4800m - 6:17.11 - (30.6)
5200m - 6:47.74 - (30.6)
5600m - 7:18.22 - (30.4)
6000m - 7:48.76 - (30.5)
6400m - 8:19.48 - (30.7)
6800m - 8:50.09 - (30.6)
7200m - 9:21.13 - (31.0)
7600m - 9:52.07 - (30.9)
8000m - 10:23.20 - (31.1)
8400m - 10:54.13 - (30.9)
8800m - 11:25.55 - (31.4)
9200m - 11:56.75 - (31.2)
9600m - 12:27.94 - (31.1)
10000m - 12:58.21 - (30.2)
10.68 27
3 146 Nils  van der Poel SWE SWE 13:04.79400m - 35.40 - (35.3)
800m - 1:06.56 - (31.1)
1200m - 1:38.04 - (31.4)
1600m - 2:09.92 - (31.8)
2000m - 2:41.53 - (31.6)
2400m - 3:13.21 - (31.6)
2800m - 3:44.77 - (31.5)
3200m - 4:16.28 - (31.5)
3600m - 4:47.75 - (31.4)
4000m - 5:19.26 - (31.5)
4400m - 5:50.63 - (31.3)
4800m - 6:21.95 - (31.3)
5200m - 6:53.28 - (31.3)
5600m - 7:24.50 - (31.2)
6000m - 7:55.68 - (31.1)
6400m - 8:26.89 - (31.2)
6800m - 8:58.11 - (31.2)
7200m - 9:29.30 - (31.1)
7600m - 10:00.48 - (31.1)
8000m - 10:31.77 - (31.2)
8400m - 11:02.91 - (31.1)
8800m - 11:34.05 - (31.1)
9200m - 12:04.83 - (30.7)
9600m - 12:35.06 - (30.2)
10000m - 13:04.79 - (29.7)
17.26 23
4 11 Jordan  Belchos CAN CAN 13:09.84400m - 34.33 - (34.3)
800m - 1:04.96 - (30.6)
1200m - 1:36.32 - (31.3)
1600m - 2:07.43 - (31.1)
2000m - 2:38.72 - (31.2)
2400m - 3:09.72 - (31.0)
2800m - 3:40.83 - (31.1)
3200m - 4:12.15 - (31.3)
3600m - 4:43.39 - (31.2)
4000m - 5:14.53 - (31.1)
4400m - 5:45.83 - (31.3)
4800m - 6:17.17 - (31.3)
5200m - 6:48.77 - (31.5)
5600m - 7:20.37 - (31.6)
6000m - 7:52.17 - (31.8)
6400m - 8:24.04 - (31.8)
6800m - 8:55.92 - (31.8)
7200m - 9:27.66 - (31.7)
7600m - 9:59.46 - (31.8)
8000m - 10:31.17 - (31.7)
8400m - 11:02.82 - (31.6)
8800m - 11:34.04 - (31.2)
9200m - 12:05.89 - (31.8)
9600m - 12:37.97 - (32.0)
10000m - 13:09.84 - (31.8)
22.31 19
5 137 Alexander  Rumyantsev RUS RUS 13:16.54400m - 35.75 - (35.7)
800m - 1:07.32 - (31.5)
1200m - 1:39.19 - (31.8)
1600m - 2:11.19 - (32.0)
2000m - 2:43.00 - (31.8)
2400m - 3:14.49 - (31.4)
2800m - 3:45.99 - (31.5)
3200m - 4:17.32 - (31.3)
3600m - 4:48.57 - (31.2)
4000m - 5:19.83 - (31.2)
4400m - 5:51.03 - (31.2)
4800m - 6:22.01 - (30.9)
5200m - 6:53.11 - (31.1)
5600m - 7:24.28 - (31.1)
6000m - 7:55.51 - (31.2)
6400m - 8:26.78 - (31.2)
6800m - 8:58.32 - (31.5)
7200m - 9:29.98 - (31.6)
7600m - 10:01.88 - (31.9)
8000m - 10:33.90 - (32.0)
8400m - 11:06.14 - (32.2)
8800m - 11:38.34 - (32.2)
9200m - 12:10.89 - (32.5)
9600m - 12:43.40 - (32.5)
10000m - 13:16.54 - (33.1)
29.01 15
6 54 Davide  Ghiotto ITA ITA 13:21.30400m - 35.57 - (35.5)
800m - 1:07.21 - (31.6)
1200m - 1:38.83 - (31.6)
1600m - 2:10.91 - (32.0)
2000m - 2:42.45 - (31.5)
2400m - 3:14.30 - (31.8)
2800m - 3:46.01 - (31.7)
3200m - 4:17.89 - (31.8)
3600m - 4:49.40 - (31.5)
4000m - 5:21.29 - (31.8)
4400m - 5:52.92 - (31.6)
4800m - 6:24.68 - (31.7)
5200m - 6:56.32 - (31.6)
5600m - 7:28.03 - (31.7)
6000m - 7:59.97 - (31.9)
6400m - 8:31.79 - (31.8)
6800m - 9:03.45 - (31.6)
7200m - 9:35.03 - (31.5)
7600m - 10:06.82 - (31.7)
8000m - 10:38.73 - (31.9)
8400m - 11:10.71 - (31.9)
8800m - 11:43.19 - (32.4)
9200m - 12:15.88 - (32.6)
9600m - 12:48.86 - (32.9)
10000m - 13:21.30 - (32.4)
33.77 11
7 115 Thomas  Søfteland NOR NOR 13:22.72400m - 36.60 - (36.6)
800m - 1:07.70 - (31.1)
1200m - 1:39.10 - (31.3)
1600m - 2:10.61 - (31.5)
2000m - 2:42.14 - (31.5)
2400m - 3:13.98 - (31.8)
2800m - 3:45.81 - (31.8)
3200m - 4:17.54 - (31.7)
3600m - 4:49.48 - (31.9)
4000m - 5:21.35 - (31.8)
4400m - 5:53.06 - (31.7)
4800m - 6:24.78 - (31.7)
5200m - 6:56.41 - (31.6)
5600m - 7:27.97 - (31.5)
6000m - 7:59.54 - (31.5)
6400m - 8:31.23 - (31.6)
6800m - 9:03.01 - (31.7)
7200m - 9:34.99 - (31.9)
7600m - 10:07.04 - (32.0)
8000m - 10:39.23 - (32.1)
8400m - 11:11.58 - (32.3)
8800m - 11:44.15 - (32.5)
9200m - 12:16.83 - (32.6)
9600m - 12:49.77 - (32.9)
10000m - 13:22.72 - (32.9)
35.19 9
8 83 Seung-Hoon  Lee KOR KOR 13:25.71400m - 36.38 - (36.3)
800m - 1:07.68 - (31.3)
1200m - 1:39.39 - (31.7)
1600m - 2:11.00 - (31.6)
2000m - 2:42.83 - (31.8)
2400m - 3:14.62 - (31.7)
2800m - 3:46.34 - (31.7)
3200m - 4:17.82 - (31.4)
3600m - 4:49.56 - (31.7)
4000m - 5:21.17 - (31.6)
4400m - 5:53.05 - (31.8)
4800m - 6:24.59 - (31.5)
5200m - 6:56.42 - (31.8)
5600m - 7:28.08 - (31.6)
6000m - 8:00.24 - (32.1)
6400m - 8:32.20 - (31.9)
6800m - 9:04.72 - (32.5)
7200m - 9:37.15 - (32.4)
7600m - 10:10.04 - (32.8)
8000m - 10:42.82 - (32.7)
8400m - 11:15.75 - (32.9)
8800m - 11:48.80 - (33.0)
9200m - 12:21.48 - (32.6)
9600m - 12:53.46 - (31.9)
10000m - 13:25.71 - (32.2)
38.18 7
9 56 Michele  Malfatti ITA ITA 13:25.74400m - 35.60 - (35.6)
800m - 1:06.55 - (30.9)
1200m - 1:38.83 - (32.2)
1600m - 2:10.71 - (31.8)
2000m - 2:42.45 - (31.7)
2400m - 3:14.52 - (32.0)
2800m - 3:46.51 - (31.9)
3200m - 4:18.08 - (31.5)
3600m - 4:50.06 - (31.9)
4000m - 5:22.06 - (32.0)
4400m - 5:54.16 - (32.1)
4800m - 6:26.15 - (31.9)
5200m - 6:58.26 - (32.1)
5600m - 7:30.26 - (32.0)
6000m - 8:02.44 - (32.1)
6400m - 8:34.39 - (31.9)
6800m - 9:06.77 - (32.3)
7200m - 9:38.91 - (32.1)
7600m - 10:11.07 - (32.1)
8000m - 10:43.17 - (32.0)
8400m - 11:15.49 - (32.3)
8800m - 11:47.90 - (32.4)
9200m - 12:20.51 - (32.6)
9600m - 12:53.06 - (32.5)
10000m - 13:25.74 - (32.6)
38.21 6
10 139 Yevgeny  Seryaev RUS RUS 13:26.90400m - 35.90 - (35.8)
800m - 1:07.51 - (31.6)
1200m - 1:39.14 - (31.6)
1600m - 2:10.66 - (31.5)
2000m - 2:42.12 - (31.4)
2400m - 3:13.72 - (31.5)
2800m - 3:45.41 - (31.6)
3200m - 4:17.10 - (31.6)
3600m - 4:48.91 - (31.8)
4000m - 5:20.74 - (31.8)
4400m - 5:52.77 - (32.0)
4800m - 6:24.68 - (31.9)
5200m - 6:56.53 - (31.8)
5600m - 7:28.29 - (31.7)
6000m - 8:00.18 - (31.8)
6400m - 8:32.50 - (32.3)
6800m - 9:04.76 - (32.2)
7200m - 9:37.21 - (32.4)
7600m - 10:09.44 - (32.2)
8000m - 10:42.12 - (32.6)
8400m - 11:14.89 - (32.7)
8800m - 11:48.09 - (33.2)
9200m - 12:21.60 - (33.5)
9600m - 12:54.17 - (32.5)
10000m - 13:26.90 - (32.7)
39.37 5
11 111 Simen Spieler  Nilsen NOR NOR 13:27.17400m - 35.22 - (35.2)
800m - 1:07.48 - (32.2)
1200m - 1:39.81 - (32.3)
1600m - 2:11.98 - (32.1)
2000m - 2:44.49 - (32.5)
2400m - 3:16.18 - (31.6)
2800m - 3:48.51 - (32.3)
3200m - 4:20.48 - (31.9)
3600m - 4:52.55 - (32.0)
4000m - 5:24.31 - (31.7)
4400m - 5:56.30 - (31.9)
4800m - 6:28.78 - (32.4)
5200m - 7:00.63 - (31.8)
5600m - 7:32.89 - (32.2)
6000m - 8:04.96 - (32.0)
6400m - 8:37.21 - (32.2)
6800m - 9:09.50 - (32.2)
7200m - 9:41.59 - (32.0)
7600m - 10:13.72 - (32.1)
8000m - 10:46.79 - (33.0)
8400m - 11:19.47 - (32.6)
8800m - 11:51.34 - (31.8)
9200m - 12:22.83 - (31.4)
9600m - 12:54.99 - (32.1)
10000m - 13:27.17 - (32.1)
39.64 4
12 67 Masahito  Obayashi JPN JPN 13:28.10400m - 36.02 - (36.0)
800m - 1:08.47 - (32.4)
1200m - 1:41.28 - (32.8)
1600m - 2:13.39 - (32.1)
2000m - 2:45.38 - (31.9)
2400m - 3:17.59 - (32.2)
2800m - 3:50.04 - (32.4)
3200m - 4:22.36 - (32.3)
3600m - 4:54.67 - (32.3)
4000m - 5:27.06 - (32.3)
4400m - 5:59.54 - (32.4)
4800m - 6:31.83 - (32.2)
5200m - 7:04.08 - (32.2)
5600m - 7:35.69 - (31.6)
6000m - 8:06.82 - (31.1)
6400m - 8:38.33 - (31.5)
6800m - 9:10.06 - (31.7)
7200m - 9:41.95 - (31.8)
7600m - 10:13.94 - (31.9)
8000m - 10:46.20 - (32.2)
8400m - 11:18.57 - (32.3)
8800m - 11:51.11 - (32.5)
9200m - 12:23.70 - (32.5)
9600m - 12:56.30 - (32.5)
10000m - 13:28.10 - (31.8)
40.57 3
13 34 Sebastian  Druszkiewicz CZE CZE 13:29.49400m - 36.27 - (36.2)
800m - 1:08.30 - (32.0)
1200m - 1:40.23 - (31.9)
1600m - 2:12.71 - (32.4)
2000m - 2:44.71 - (32.0)
2400m - 3:16.76 - (32.0)
2800m - 3:48.72 - (31.9)
3200m - 4:20.65 - (31.9)
3600m - 4:52.39 - (31.7)
4000m - 5:24.30 - (31.9)
4400m - 5:55.98 - (31.6)
4800m - 6:27.93 - (31.9)
5200m - 6:59.76 - (31.8)
5600m - 7:31.64 - (31.8)
6000m - 8:03.70 - (32.0)
6400m - 8:35.89 - (32.1)
6800m - 9:08.29 - (32.3)
7200m - 9:40.82 - (32.5)
7600m - 10:13.13 - (32.3)
8000m - 10:45.71 - (32.5)
8400m - 11:18.39 - (32.6)
8800m - 11:51.23 - (32.8)
9200m - 12:24.08 - (32.8)
9600m - 12:57.03 - (32.9)
10000m - 13:29.49 - (32.4)
41.96 2
14 72 Dmitry  Babenko KAZ KAZ 13:31.71400m - 36.56 - (36.5)
800m - 1:08.73 - (32.1)
1200m - 1:40.92 - (32.1)
1600m - 2:12.72 - (31.8)
2000m - 2:44.53 - (31.8)
2400m - 3:16.35 - (31.8)
2800m - 3:48.36 - (32.0)
3200m - 4:20.45 - (32.0)
3600m - 4:52.56 - (32.1)
4000m - 5:24.65 - (32.0)
4400m - 5:56.88 - (32.2)
4800m - 6:29.49 - (32.6)
5200m - 7:02.18 - (32.6)
5600m - 7:35.64 - (33.4)
6000m - 8:10.18 - (34.5)
6400m - 8:45.00 - (34.8)
6800m - 9:18.18 - (33.1)
7200m - 9:50.26 - (32.0)
7600m - 10:22.01 - (31.7)
8000m - 10:53.51 - (31.5)
8400m - 11:25.07 - (31.5)
8800m - 11:56.76 - (31.6)
9200m - 12:28.28 - (31.5)
9600m - 12:59.89 - (31.6)
10000m - 13:31.71 - (31.8)
44.18 1
15 10 Vitaly  Mikhailov BLR BLR 13:36.36400m - 36.10 - (36.1)
800m - 1:08.62 - (32.5)
1200m - 1:40.31 - (31.6)
1600m - 2:12.14 - (31.8)
2000m - 2:43.66 - (31.5)
2400m - 3:15.60 - (31.9)
2800m - 3:47.39 - (31.7)
3200m - 4:19.18 - (31.7)
3600m - 4:51.01 - (31.8)
4000m - 5:23.07 - (32.0)
4400m - 5:55.13 - (32.0)
4800m - 6:27.37 - (32.2)
5200m - 6:59.66 - (32.2)
5600m - 7:32.15 - (32.4)
6000m - 8:04.86 - (32.7)
6400m - 8:37.87 - (33.0)
6800m - 9:11.02 - (33.1)
7200m - 9:43.85 - (32.8)
7600m - 10:16.57 - (32.7)
8000m - 10:49.40 - (32.8)
8400m - 11:22.48 - (33.0)
8800m - 11:55.83 - (33.3)
9200m - 12:29.32 - (33.4)
9600m - 13:02.79 - (33.4)
10000m - 13:36.36 - (33.5)
48.83 0
16 144 Livio  Wenger SUI SUI 13:37.80400m - 36.53 - (36.5)
800m - 1:09.71 - (33.1)
1200m - 1:42.15 - (32.4)
1600m - 2:14.84 - (32.6)
2000m - 2:47.43 - (32.5)
2400m - 3:20.22 - (32.7)
2800m - 3:53.07 - (32.8)
3200m - 4:25.73 - (32.6)
3600m - 4:58.37 - (32.6)
4000m - 5:31.04 - (32.6)
4400m - 6:03.45 - (32.4)
4800m - 6:35.99 - (32.5)
5200m - 7:08.44 - (32.4)
5600m - 7:41.04 - (32.6)
6000m - 8:13.82 - (32.7)
6400m - 8:46.46 - (32.6)
6800m - 9:19.24 - (32.7)
7200m - 9:52.49 - (33.2)
7600m - 10:25.42 - (32.9)
8000m - 10:57.73 - (32.3)
8400m - 11:30.13 - (32.3)
8800m - 12:02.71 - (32.5)
9200m - 12:34.74 - (32.0)
9600m - 13:05.93 - (31.1)
10000m - 13:37.80 - (31.8)
50.27 0
17 5 Linus  Heidegger AUT AUT 13:38.27400m - 37.34 - (37.3)
800m - 1:09.88 - (32.5)
1200m - 1:42.40 - (32.5)
1600m - 2:14.70 - (32.2)
2000m - 2:47.16 - (32.4)
2400m - 3:19.32 - (32.1)
2800m - 3:51.88 - (32.5)
3200m - 4:24.09 - (32.2)
3600m - 4:56.40 - (32.3)
4000m - 5:28.62 - (32.2)
4400m - 6:00.91 - (32.2)
4800m - 6:33.06 - (32.1)
5200m - 7:05.22 - (32.1)
5600m - 7:37.38 - (32.1)
6000m - 8:09.48 - (32.1)
6400m - 8:41.80 - (32.3)
6800m - 9:14.20 - (32.4)
7200m - 9:46.72 - (32.5)
7600m - 10:19.34 - (32.6)
8000m - 10:52.30 - (32.9)
8400m - 11:25.36 - (33.0)
8800m - 11:58.71 - (33.3)
9200m - 12:31.97 - (33.2)
9600m - 13:05.04 - (33.0)
10000m - 13:38.27 - (33.2)
50.74 0
18 62 Yuta  Kiyama JPN JPN 13:40.31400m - 36.57 - (36.5)
800m - 1:08.52 - (31.9)
1200m - 1:40.92 - (32.4)
1600m - 2:13.17 - (32.2)
2000m - 2:45.46 - (32.2)
2400m - 3:17.78 - (32.3)
2800m - 3:49.98 - (32.2)
3200m - 4:22.27 - (32.2)
3600m - 4:54.59 - (32.3)
4000m - 5:26.83 - (32.2)
4400m - 5:59.09 - (32.2)
4800m - 6:31.52 - (32.4)
5200m - 7:04.32 - (32.8)
5600m - 7:37.22 - (32.9)
6000m - 8:10.30 - (33.0)
6400m - 8:43.20 - (32.9)
6800m - 9:16.22 - (33.0)
7200m - 9:49.18 - (32.9)
7600m - 10:22.20 - (33.0)
8000m - 10:55.53 - (33.3)
8400m - 11:28.76 - (33.2)
8800m - 12:02.03 - (33.2)
9200m - 12:35.06 - (33.0)
9600m - 13:08.05 - (32.9)
10000m - 13:40.31 - (32.2)
52.78 0
19 128 Adrian  Wielgat POL POL 13:43.25400m - 36.77 - (36.7)
800m - 1:09.09 - (32.3)
1200m - 1:41.56 - (32.4)
1600m - 2:13.77 - (32.2)
2000m - 2:46.36 - (32.5)
2400m - 3:19.27 - (32.9)
2800m - 3:52.00 - (32.7)
3200m - 4:24.74 - (32.7)
3600m - 4:57.74 - (33.0)
4000m - 5:30.32 - (32.5)
4400m - 6:03.16 - (32.8)
4800m - 6:36.06 - (32.8)
5200m - 7:09.34 - (33.2)
5600m - 7:42.66 - (33.3)
6000m - 8:15.37 - (32.7)
6400m - 8:47.96 - (32.5)
6800m - 9:20.60 - (32.6)
7200m - 9:54.66 - (34.0)
7600m - 10:28.52 - (33.8)
8000m - 11:01.31 - (32.7)
8400m - 11:33.12 - (31.8)
8800m - 12:05.33 - (32.2)
9200m - 12:37.91 - (32.5)
9600m - 13:10.73 - (32.8)
10000m - 13:43.25 - (32.5)
55.72 0
20 155 Ian  Quinn USA USA 13:54.96400m - 37.08 - (37.0)
800m - 1:09.30 - (32.2)
1200m - 1:41.57 - (32.2)
1600m - 2:14.57 - (33.0)
2000m - 2:47.31 - (32.7)
2400m - 3:20.27 - (32.9)
2800m - 3:52.93 - (32.6)
3200m - 4:26.12 - (33.1)
3600m - 4:59.09 - (32.9)
4000m - 5:32.04 - (32.9)
4400m - 6:05.27 - (33.2)
4800m - 6:38.48 - (33.2)
5200m - 7:11.25 - (32.7)
5600m - 7:44.38 - (33.1)
6000m - 8:17.31 - (32.9)
6400m - 8:50.70 - (33.3)
6800m - 9:24.10 - (33.3)
7200m - 9:57.77 - (33.6)
7600m - 10:30.93 - (33.1)
8000m - 11:04.53 - (33.6)
8400m - 11:38.32 - (33.7)
8800m - 12:12.46 - (34.1)
9200m - 12:46.56 - (34.0)
9600m - 13:20.75 - (34.1)
10000m - 13:54.96 - (34.2)
67.43 0
21 119 Marcin  Bachanek POL POL 13:59.64400m - 36.79 - (36.7)
800m - 1:09.10 - (32.3)
1200m - 1:42.95 - (33.8)
1600m - 2:16.32 - (33.3)
2000m - 2:50.12 - (33.8)
2400m - 3:23.43 - (33.3)
2800m - 3:56.68 - (33.2)
3200m - 4:29.87 - (33.1)
3600m - 5:03.50 - (33.6)
4000m - 5:36.63 - (33.1)
4400m - 6:09.78 - (33.1)
4800m - 6:43.17 - (33.3)
5200m - 7:16.75 - (33.5)
5600m - 7:49.54 - (32.7)
6000m - 8:22.18 - (32.6)
6400m - 8:55.00 - (32.8)
6800m - 9:28.13 - (33.1)
7200m - 10:01.77 - (33.6)
7600m - 10:35.47 - (33.7)
8000m - 11:09.35 - (33.8)
8400m - 11:43.65 - (34.2)
8800m - 12:17.82 - (34.1)
9200m - 12:52.00 - (34.1)
9600m - 13:26.16 - (34.1)
10000m - 13:59.64 - (33.4)
72.11 0
22 36 Viktor Hald  Thorup DEN DEN DNF400m - 37.59 - (37.5)
800m - 1:09.07 - (31.4)
1200m - 1:40.68 - (31.6)
1600m - 2:12.62 - (31.9)
2000m - 2:44.23 - (31.6)
2400m - 3:16.03 - (31.8)
2800m - 3:47.77 - (31.7)
3200m - 4:19.79 - (32.0)
3600m - 4:51.69 - (31.8)
4000m - 5:23.55 - (31.8)
4400m - 5:55.40 - (31.8)
4800m - 6:27.62 - (32.2)
5200m - 7:00.12 - (32.5)
5600m - 7:32.90 - (32.7)
6000m - 8:06.74 - (33.8)
6400m - 8:45.20 - (38.4)
6800m - 10:05.83 - (80.6)
0
22 138 Danila  Semerikov RUS RUS DNF400m - 34.11 - (34.1)
800m - 1:05.17 - (31.0)
1200m - 1:37.01 - (31.8)
1600m - 2:08.69 - (31.6)
2000m - 2:40.26 - (31.5)
2400m - 3:12.31 - (32.0)
2800m - 3:44.36 - (32.0)
3200m - 4:16.47 - (32.1)
3600m - 4:48.59 - (32.1)
4000m - 5:20.89 - (32.3)
4400m - 5:52.88 - (31.9)
4800m - 6:25.23 - (32.3)
5200m - 6:57.34 - (32.1)
5600m - 7:30.18 - (32.8)
6000m - 8:03.17 - (32.9)
6400m - 8:37.01 - (33.8)
6800m - 9:21.64 - (44.6)
0
24 108 Allan Dahl  Johansson NOR NOR DQ400m - 35.72 - (35.7)
800m - 1:07.25 - (31.5)
1200m - 1:39.98 - (32.7)
1600m - 2:13.05 - (33.0)
2000m - 2:45.66 - (32.6)
2400m - 3:18.31 - (32.6)
2800m - 3:51.16 - (32.8)
3200m - 4:24.25 - (33.0)
3600m - 4:57.47 - (33.2)
4000m - 5:30.76 - (33.2)
4400m - 6:04.39 - (33.6)
4800m - 6:37.94 - (33.5)
5200m - 7:11.33 - (33.3)
5600m - 7:44.56 - (33.2)
6000m - 8:18.03 - (33.4)
6400m - 8:51.62 - (33.5)
6800m - 9:25.92 - (34.2)
7200m - 10:00.21 - (34.2)
7600m - 10:34.48 - (34.2)
8000m - 11:08.85 - (34.3)
8400m - 11:43.71 - (34.8)
8800m - 12:18.82 - (35.1)
9200m - 12:53.70 - (34.8)
9600m - 13:28.02 - (34.3)
10000m - 14:01.44 - (33.4)
0